Year,Month,Day,Hour,Minute,Value (Times are PST for temperature in C)
2018,10,21,02,54,4.40
2018,10,21,02,55,4.40
2018,10,21,02,56,4.40
2018,10,21,02,57,4.40
2018,10,21,02,58,4.40
2018,10,21,02,59,4.40
2018,10,21,03,00,4.40
2018,10,21,03,01,4.40
2018,10,21,03,02,4.40
2018,10,21,03,03,4.40
2018,10,21,03,04,4.40
2018,10,21,03,05,4.40
2018,10,21,03,06,4.40
2018,10,21,03,07,4.40
2018,10,21,03,08,4.40
2018,10,21,03,09,4.30
2018,10,21,03,10,4.30
2018,10,21,03,11,4.30
2018,10,21,03,12,4.30
2018,10,21,03,13,4.30
2018,10,21,03,14,4.30
2018,10,21,03,15,4.30
2018,10,21,03,16,4.30
2018,10,21,03,17,4.30
2018,10,21,03,18,4.30
2018,10,21,03,19,4.30
2018,10,21,03,20,4.30
2018,10,21,03,21,4.30
2018,10,21,03,22,4.30
2018,10,21,03,23,4.30
2018,10,21,03,24,4.30
2018,10,21,03,25,4.30
2018,10,21,03,26,4.30
2018,10,21,03,27,4.30
2018,10,21,03,28,4.30
2018,10,21,03,29,4.30
2018,10,21,03,30,4.30
2018,10,21,03,31,4.30
2018,10,21,03,32,4.30
2018,10,21,03,33,4.30
2018,10,21,03,34,4.30
2018,10,21,03,35,4.30
2018,10,21,03,36,4.30
2018,10,21,03,37,4.30
2018,10,21,03,38,4.20
2018,10,21,03,39,4.20
2018,10,21,03,40,4.20
2018,10,21,03,41,4.20
2018,10,21,03,42,4.20
2018,10,21,03,43,4.20
2018,10,21,03,44,4.20
2018,10,21,03,45,4.20
2018,10,21,03,46,4.20
2018,10,21,03,47,4.20
2018,10,21,03,48,4.20
2018,10,21,03,49,4.20
2018,10,21,03,50,4.20
2018,10,21,03,51,4.20
2018,10,21,03,52,4.20
2018,10,21,03,53,4.20
2018,10,21,03,54,4.10
2018,10,21,03,55,4.10
2018,10,21,03,56,4.10
2018,10,21,03,57,4.10
2018,10,21,03,58,4.10
2018,10,21,03,59,4.10
2018,10,21,04,00,4.10
2018,10,21,04,01,4.10
2018,10,21,04,02,4.00
2018,10,21,04,03,4.00
2018,10,21,04,04,4.00
2018,10,21,04,05,4.00
2018,10,21,04,06,4.00
2018,10,21,04,07,4.00
2018,10,21,04,08,4.10
2018,10,21,04,09,4.10
2018,10,21,04,10,4.10
2018,10,21,04,11,4.10
2018,10,21,04,12,4.10
2018,10,21,04,13,4.10
2018,10,21,04,14,4.10
2018,10,21,04,15,4.10
2018,10,21,04,16,4.10
2018,10,21,04,17,4.10
2018,10,21,04,18,4.10
2018,10,21,04,19,4.10
2018,10,21,04,20,4.10
2018,10,21,04,21,4.10
2018,10,21,04,22,4.10
2018,10,21,04,23,4.10
2018,10,21,04,24,4.10
2018,10,21,04,25,4.10
2018,10,21,04,26,4.10
2018,10,21,04,27,4.10
2018,10,21,04,28,4.10
2018,10,21,04,29,4.10
2018,10,21,04,30,4.10
2018,10,21,04,31,4.10
2018,10,21,04,32,4.10
2018,10,21,04,33,4.10
2018,10,21,04,34,4.10
2018,10,21,04,35,4.10
2018,10,21,04,36,4.10
2018,10,21,04,37,4.10
2018,10,21,04,38,4.10
2018,10,21,04,39,4.10
2018,10,21,04,40,4.10
2018,10,21,04,41,4.10
2018,10,21,04,42,4.10
2018,10,21,04,43,4.10
2018,10,21,04,44,4.10
2018,10,21,04,45,4.10
2018,10,21,04,46,4.10
2018,10,21,04,47,4.10
2018,10,21,04,48,4.10
2018,10,21,04,49,4.10
2018,10,21,04,50,4.10
2018,10,21,04,51,4.10
2018,10,21,04,52,4.10
2018,10,21,04,53,4.10
2018,10,21,04,54,4.10
2018,10,21,04,55,4.10
2018,10,21,04,56,4.10
2018,10,21,04,57,4.10
2018,10,21,04,58,4.10
2018,10,21,04,59,4.10
2018,10,21,05,00,4.10
2018,10,21,05,01,4.10
2018,10,21,05,02,4.10
2018,10,21,05,03,4.10
2018,10,21,05,04,4.10
2018,10,21,05,05,4.10
2018,10,21,05,06,4.10
2018,10,21,05,07,4.10
2018,10,21,05,08,4.10
2018,10,21,05,09,4.10
2018,10,21,05,10,4.10
2018,10,21,05,11,4.10
2018,10,21,05,12,4.10
2018,10,21,05,13,4.10
2018,10,21,05,14,4.10
2018,10,21,05,15,4.20
2018,10,21,05,16,4.20
2018,10,21,05,17,4.20
2018,10,21,05,18,4.20
2018,10,21,05,19,4.20
2018,10,21,05,20,4.20
2018,10,21,05,21,4.20
2018,10,21,05,22,4.20
2018,10,21,05,23,4.20
2018,10,21,05,24,4.20
2018,10,21,05,25,4.20
2018,10,21,05,26,4.20
2018,10,21,05,27,4.20
2018,10,21,05,28,4.20
2018,10,21,05,29,4.20
2018,10,21,05,30,4.20
2018,10,21,05,31,4.20
2018,10,21,05,32,4.20
2018,10,21,05,33,4.30
2018,10,21,05,34,4.30
2018,10,21,05,35,4.30
2018,10,21,05,36,4.30
2018,10,21,05,37,4.30
2018,10,21,05,38,4.30
2018,10,21,05,39,4.30
2018,10,21,05,40,4.30
2018,10,21,05,41,4.30
2018,10,21,05,42,4.30
2018,10,21,05,43,4.30
2018,10,21,05,44,4.40
2018,10,21,05,45,4.40
2018,10,21,05,46,4.40
2018,10,21,05,47,4.40
2018,10,21,05,48,4.50
2018,10,21,05,49,4.50
2018,10,21,05,50,4.50
2018,10,21,05,51,4.60
2018,10,21,05,52,4.60
2018,10,21,05,53,4.60
2018,10,21,05,54,4.60
2018,10,21,05,55,4.60
2018,10,21,05,56,4.70
2018,10,21,05,57,4.70
2018,10,21,05,58,4.70
2018,10,21,05,59,4.70
2018,10,21,06,00,4.70
2018,10,21,06,01,4.70
2018,10,21,06,02,4.70
2018,10,21,06,03,4.70
2018,10,21,06,04,4.70
2018,10,21,06,05,4.70
2018,10,21,06,06,4.70
2018,10,21,06,07,4.70
2018,10,21,06,08,4.70
2018,10,21,06,09,4.70
2018,10,21,06,10,4.70
2018,10,21,06,11,4.70
2018,10,21,06,12,4.70
2018,10,21,06,13,4.70
2018,10,21,06,14,4.70
2018,10,21,06,15,4.60
2018,10,21,06,16,4.60
2018,10,21,06,17,4.60
2018,10,21,06,18,4.60
2018,10,21,06,19,4.60
2018,10,21,06,20,4.60
2018,10,21,06,21,4.60
2018,10,21,06,22,4.60
2018,10,21,06,23,4.60
2018,10,21,06,24,4.60
2018,10,21,06,25,4.60
2018,10,21,06,26,4.60
2018,10,21,06,27,4.60
2018,10,21,06,28,4.60
2018,10,21,06,29,4.60
2018,10,21,06,30,4.60
2018,10,21,06,31,4.60
2018,10,21,06,32,4.60
2018,10,21,06,33,4.60
2018,10,21,06,34,4.60
2018,10,21,06,35,4.60
2018,10,21,06,36,4.60
2018,10,21,06,37,4.60
2018,10,21,06,38,4.60
2018,10,21,06,39,4.50
2018,10,21,06,40,4.50
2018,10,21,06,41,4.50
2018,10,21,06,42,4.50
2018,10,21,06,43,4.40
2018,10,21,06,44,4.40
2018,10,21,06,45,4.40
2018,10,21,06,46,4.30
2018,10,21,06,47,4.30
2018,10,21,06,48,4.30
2018,10,21,06,49,4.20
2018,10,21,06,50,4.20
2018,10,21,06,51,4.20
2018,10,21,06,52,4.20
2018,10,21,06,53,4.20
2018,10,21,06,54,4.20
2018,10,21,06,55,4.10
2018,10,21,06,56,4.10
2018,10,21,06,57,4.10
2018,10,21,06,58,4.10
2018,10,21,06,59,4.10
2018,10,21,07,00,4.10
2018,10,21,07,01,4.10
2018,10,21,07,02,4.00
2018,10,21,07,03,4.00
2018,10,21,07,04,4.00
2018,10,21,07,05,3.90
2018,10,21,07,06,3.90
2018,10,21,07,07,3.90
2018,10,21,07,08,3.90
2018,10,21,07,09,3.90
2018,10,21,07,10,3.90
2018,10,21,07,11,3.80
2018,10,21,07,12,3.80
2018,10,21,07,13,3.80
2018,10,21,07,14,3.80
2018,10,21,07,15,3.80
2018,10,21,07,16,3.80
2018,10,21,07,17,3.80
2018,10,21,07,18,3.80
2018,10,21,07,19,3.80
2018,10,21,07,20,3.80
2018,10,21,07,21,3.80
2018,10,21,07,22,3.80
2018,10,21,07,23,3.80
2018,10,21,07,24,3.80
2018,10,21,07,25,3.80
2018,10,21,07,26,3.80
2018,10,21,07,27,3.80
2018,10,21,07,28,3.80
2018,10,21,07,29,3.80
2018,10,21,07,30,3.80
2018,10,21,07,31,3.80
2018,10,21,07,32,3.80
2018,10,21,07,33,3.90
2018,10,21,07,34,3.90
2018,10,21,07,35,3.90
2018,10,21,07,36,3.90
2018,10,21,07,37,3.90
2018,10,21,07,38,3.90
2018,10,21,07,39,3.90
2018,10,21,07,40,3.90
2018,10,21,07,41,3.90
2018,10,21,07,42,3.90
2018,10,21,07,43,3.90
2018,10,21,07,44,3.90
2018,10,21,07,45,3.90
2018,10,21,07,46,4.00
2018,10,21,07,47,4.00
2018,10,21,07,48,4.00
2018,10,21,07,49,4.00
2018,10,21,07,50,4.00
2018,10,21,07,51,4.00
2018,10,21,07,52,4.10
2018,10,21,07,53,4.10
2018,10,21,07,54,4.10
2018,10,21,07,55,4.10
2018,10,21,07,56,4.10
2018,10,21,07,57,4.10
2018,10,21,07,58,4.10
2018,10,21,07,59,4.10
2018,10,21,08,00,4.20
2018,10,21,08,01,4.20
2018,10,21,08,02,4.20
2018,10,21,08,03,4.20
2018,10,21,08,04,4.20
2018,10,21,08,05,4.20
2018,10,21,08,06,4.30
2018,10,21,08,07,4.30
2018,10,21,08,08,4.30
2018,10,21,08,09,4.30
2018,10,21,08,10,4.30
2018,10,21,08,11,4.30
2018,10,21,08,12,4.40
2018,10,21,08,13,4.40
2018,10,21,08,14,4.40
2018,10,21,08,15,4.40
2018,10,21,08,16,4.40
2018,10,21,08,17,4.50
2018,10,21,08,18,4.50
2018,10,21,08,19,4.50
2018,10,21,08,20,4.50
2018,10,21,08,21,4.60
2018,10,21,08,22,4.60
2018,10,21,08,23,4.60
2018,10,21,08,24,4.60
2018,10,21,08,25,4.60
2018,10,21,08,26,4.70
2018,10,21,08,27,4.70
2018,10,21,08,28,4.70
2018,10,21,08,29,4.70
2018,10,21,08,30,4.80
2018,10,21,08,31,4.80
2018,10,21,08,32,4.80
2018,10,21,08,33,4.80
2018,10,21,08,34,4.80
2018,10,21,08,35,4.90
2018,10,21,08,36,4.90
2018,10,21,08,37,4.90
2018,10,21,08,38,4.90
2018,10,21,08,39,4.90
2018,10,21,08,40,4.90
2018,10,21,08,41,4.90
2018,10,21,08,42,5.00
2018,10,21,08,43,5.00
2018,10,21,08,44,5.00
2018,10,21,08,45,5.10
2018,10,21,08,46,5.10
2018,10,21,08,47,5.10
2018,10,21,08,48,5.10
2018,10,21,08,49,5.10
2018,10,21,08,50,5.20
2018,10,21,08,51,5.20
2018,10,21,08,52,5.20
2018,10,21,08,53,5.20
2018,10,21,08,54,5.30
2018,10,21,08,55,5.30
2018,10,21,08,56,5.30
2018,10,21,08,57,5.30
2018,10,21,08,58,5.30
2018,10,21,08,59,5.40
2018,10,21,09,00,5.40
2018,10,21,09,01,5.50
2018,10,21,09,02,5.50
2018,10,21,09,03,5.50
2018,10,21,09,04,5.60
2018,10,21,09,05,5.60
2018,10,21,09,06,5.60
2018,10,21,09,07,5.70
2018,10,21,09,08,5.70
2018,10,21,09,09,5.70
2018,10,21,09,10,5.80
2018,10,21,09,11,5.80
2018,10,21,09,12,5.80
2018,10,21,09,13,5.80
2018,10,21,09,14,5.90
2018,10,21,09,15,5.90
2018,10,21,09,16,5.90
2018,10,21,09,17,5.90
2018,10,21,09,18,6.00
2018,10,21,09,19,6.00
2018,10,21,09,20,6.00
2018,10,21,09,21,6.10
2018,10,21,09,22,6.10
2018,10,21,09,23,6.10
2018,10,21,09,24,6.10
2018,10,21,09,25,6.20
2018,10,21,09,26,6.20
2018,10,21,09,27,6.20
2018,10,21,09,28,6.20
2018,10,21,09,29,6.30
2018,10,21,09,30,6.30
2018,10,21,09,31,6.30
2018,10,21,09,32,6.30
2018,10,21,09,33,6.30
2018,10,21,09,34,6.30
2018,10,21,09,35,6.30
2018,10,21,09,36,6.40
2018,10,21,09,37,6.40
2018,10,21,09,38,6.40
2018,10,21,09,39,6.40
2018,10,21,09,40,6.50
2018,10,21,09,41,6.60
2018,10,21,09,42,6.60
2018,10,21,09,43,6.60
2018,10,21,09,44,6.70
2018,10,21,09,45,6.70
2018,10,21,09,46,6.70
2018,10,21,09,47,6.70
2018,10,21,09,48,6.70
2018,10,21,09,49,6.80
2018,10,21,09,50,6.80
2018,10,21,09,51,6.80
2018,10,21,09,52,6.80
2018,10,21,09,53,6.90
2018,10,21,09,54,6.90
2018,10,21,09,55,6.90
2018,10,21,09,56,6.90
2018,10,21,09,57,7.00
2018,10,21,09,58,7.00
2018,10,21,09,59,7.10
2018,10,21,10,00,7.10
2018,10,21,10,01,7.10
2018,10,21,10,02,7.20
2018,10,21,10,03,7.20
2018,10,21,10,04,7.20
2018,10,21,10,05,7.20
2018,10,21,10,06,7.20
2018,10,21,10,07,7.20
2018,10,21,10,08,7.30
2018,10,21,10,09,7.30
2018,10,21,10,10,7.30
2018,10,21,10,11,7.40
2018,10,21,10,12,7.40
2018,10,21,10,13,7.40
2018,10,21,10,14,7.40
2018,10,21,10,15,7.40
2018,10,21,10,16,7.50
2018,10,21,10,17,7.50
2018,10,21,10,18,7.60
2018,10,21,10,19,7.60
2018,10,21,10,20,7.70
2018,10,21,10,21,7.70
2018,10,21,10,22,7.70
2018,10,21,10,23,7.80
2018,10,21,10,24,7.80
2018,10,21,10,25,7.80
2018,10,21,10,26,7.80
2018,10,21,10,27,7.80
2018,10,21,10,28,7.80
2018,10,21,10,29,7.80
2018,10,21,10,30,7.80
2018,10,21,10,31,7.80
2018,10,21,10,32,7.80
2018,10,21,10,33,7.80
2018,10,21,10,34,7.80
2018,10,21,10,35,7.90
2018,10,21,10,36,7.90
2018,10,21,10,37,7.90
2018,10,21,10,38,7.90
2018,10,21,10,39,7.90
2018,10,21,10,40,8.00
2018,10,21,10,41,8.00
2018,10,21,10,42,8.10
2018,10,21,10,43,8.10
2018,10,21,10,44,8.20
2018,10,21,10,45,8.20
2018,10,21,10,46,8.20
2018,10,21,10,47,8.20
2018,10,21,10,48,8.20
2018,10,21,10,49,8.10
2018,10,21,10,50,8.10
2018,10,21,10,51,8.10
2018,10,21,10,52,8.10
2018,10,21,10,53,8.10
2018,10,21,10,54,8.10
2018,10,21,10,55,8.10
2018,10,21,10,56,8.10
2018,10,21,10,57,8.10
2018,10,21,10,58,8.20
2018,10,21,10,59,8.20
2018,10,21,11,00,8.30
2018,10,21,11,01,8.30
2018,10,21,11,02,8.40
2018,10,21,11,03,8.50
2018,10,21,11,04,8.60
2018,10,21,11,05,8.60
2018,10,21,11,06,8.60
2018,10,21,11,07,8.60
2018,10,21,11,08,8.70
2018,10,21,11,09,8.70
2018,10,21,11,10,8.70
2018,10,21,11,11,8.80
2018,10,21,11,12,8.80
2018,10,21,11,13,8.80
2018,10,21,11,14,8.80
2018,10,21,11,15,8.90
2018,10,21,11,16,8.90
2018,10,21,11,17,9.00
2018,10,21,11,18,9.10
2018,10,21,11,19,9.20
2018,10,21,11,20,9.30
2018,10,21,11,21,9.40
2018,10,21,11,22,9.40
2018,10,21,11,23,9.30
2018,10,21,11,24,9.30
2018,10,21,11,25,9.30
2018,10,21,11,26,9.30
2018,10,21,11,27,9.30
2018,10,21,11,28,9.30
2018,10,21,11,29,9.30
2018,10,21,11,30,9.40
2018,10,21,11,31,9.40
2018,10,21,11,32,9.50
2018,10,21,11,33,9.60
2018,10,21,11,34,9.60
2018,10,21,11,35,9.70
2018,10,21,11,36,9.80
2018,10,21,11,37,10.00
2018,10,21,11,38,10.10
2018,10,21,11,39,10.20
2018,10,21,11,40,10.20
2018,10,21,11,41,10.30
2018,10,21,11,42,10.40
2018,10,21,11,43,10.40
2018,10,21,11,44,10.50
2018,10,21,11,45,10.60
2018,10,21,11,46,10.60
2018,10,21,11,47,10.60
2018,10,21,11,48,10.60
2018,10,21,11,49,10.80
2018,10,21,11,50,10.90
2018,10,21,11,51,10.90
2018,10,21,11,52,10.90
2018,10,21,11,53,11.00
2018,10,21,11,54,11.00
2018,10,21,11,55,11.20
2018,10,21,11,56,11.30
2018,10,21,11,57,11.50
2018,10,21,11,58,11.60
2018,10,21,11,59,11.60
2018,10,21,12,00,11.70
2018,10,21,12,01,11.70
2018,10,21,12,02,11.70
2018,10,21,12,03,11.70
2018,10,21,12,04,11.70
2018,10,21,12,05,11.70
2018,10,21,12,06,11.80
2018,10,21,12,07,11.80
2018,10,21,12,08,11.90
2018,10,21,12,09,12.00
2018,10,21,12,10,12.10
2018,10,21,12,11,12.20
2018,10,21,12,12,12.30
2018,10,21,12,13,12.40
2018,10,21,12,14,12.50
2018,10,21,12,15,12.60
2018,10,21,12,16,12.70
2018,10,21,12,17,12.80
2018,10,21,12,18,12.90
2018,10,21,12,19,13.00
2018,10,21,12,20,13.00
2018,10,21,12,21,13.00
2018,10,21,12,22,12.90
2018,10,21,12,23,12.90
2018,10,21,12,24,13.00
2018,10,21,12,25,13.10
2018,10,21,12,26,13.20
2018,10,21,12,27,13.20
2018,10,21,12,28,13.30
2018,10,21,12,29,13.30
2018,10,21,12,30,13.40
2018,10,21,12,31,13.40
2018,10,21,12,32,13.40
2018,10,21,12,33,13.50
2018,10,21,12,34,13.60
2018,10,21,12,35,13.70
2018,10,21,12,36,13.80
2018,10,21,12,37,13.80
2018,10,21,12,38,13.80
2018,10,21,12,39,13.80
2018,10,21,12,40,13.80
2018,10,21,12,41,13.80
2018,10,21,12,42,13.80
2018,10,21,12,43,13.90
2018,10,21,12,44,13.90
2018,10,21,12,45,13.90
2018,10,21,12,46,14.00
2018,10,21,12,47,14.00
2018,10,21,12,48,14.10
2018,10,21,12,49,14.10
2018,10,21,12,50,14.10
2018,10,21,12,51,14.20
2018,10,21,12,52,14.30
2018,10,21,12,53,14.30
2018,10,21,12,54,14.40
2018,10,21,12,55,14.50
2018,10,21,12,56,14.60
2018,10,21,12,57,14.70
2018,10,21,12,58,14.70
2018,10,21,12,59,14.80
2018,10,21,13,00,14.80
2018,10,21,13,01,14.80
2018,10,21,13,02,14.90
2018,10,21,13,03,15.00
2018,10,21,13,04,15.00
2018,10,21,13,05,15.00
2018,10,21,13,06,15.00
2018,10,21,13,07,15.00
2018,10,21,13,08,15.00
2018,10,21,13,09,15.10
2018,10,21,13,10,15.20
2018,10,21,13,11,15.30
2018,10,21,13,12,15.40
2018,10,21,13,13,15.50
2018,10,21,13,14,15.60
2018,10,21,13,15,15.60
2018,10,21,13,16,15.60
2018,10,21,13,17,15.60
2018,10,21,13,18,15.70
2018,10,21,13,19,15.70
2018,10,21,13,20,15.80
2018,10,21,13,21,15.80
2018,10,21,13,22,15.90
2018,10,21,13,23,16.10
2018,10,21,13,24,16.10
2018,10,21,13,25,16.20
2018,10,21,13,26,16.30
2018,10,21,13,27,16.40
2018,10,21,13,28,16.40
2018,10,21,13,29,16.50
2018,10,21,13,30,16.60
2018,10,21,13,31,16.60
2018,10,21,13,32,16.60
2018,10,21,13,33,16.70
2018,10,21,13,34,16.70
2018,10,21,13,35,16.80
2018,10,21,13,36,16.80
2018,10,21,13,37,16.90
2018,10,21,13,38,17.00
2018,10,21,13,39,17.10
2018,10,21,13,40,17.20
2018,10,21,13,41,17.20
2018,10,21,13,42,17.30
2018,10,21,13,43,17.40
2018,10,21,13,44,17.50
2018,10,21,13,45,17.60
2018,10,21,13,46,17.70
2018,10,21,13,47,17.70
2018,10,21,13,48,17.70
2018,10,21,13,49,17.70
2018,10,21,13,50,17.70
2018,10,21,13,51,17.70
2018,10,21,13,52,17.80
2018,10,21,13,53,17.80
2018,10,21,13,54,17.80
2018,10,21,13,55,17.80
2018,10,21,13,56,17.80
2018,10,21,13,57,17.80
2018,10,21,13,58,17.80
2018,10,21,13,59,17.80
2018,10,21,14,00,17.80
2018,10,21,14,01,17.80
2018,10,21,14,02,17.80
2018,10,21,14,03,17.80
2018,10,21,14,04,17.80
2018,10,21,14,05,17.80
2018,10,21,14,06,17.80
2018,10,21,14,07,17.90
2018,10,21,14,08,17.90
2018,10,21,14,09,17.90
2018,10,21,14,10,17.90
2018,10,21,14,11,18.00
2018,10,21,14,12,18.00
2018,10,21,14,13,18.10
2018,10,21,14,14,18.10
2018,10,21,14,15,18.10
2018,10,21,14,16,18.10
2018,10,21,14,17,18.20
2018,10,21,14,18,18.20
2018,10,21,14,19,18.20
2018,10,21,14,20,18.20
2018,10,21,14,21,18.30
2018,10,21,14,22,18.40
2018,10,21,14,23,18.50
2018,10,21,14,24,18.60
2018,10,21,14,25,18.60
2018,10,21,14,26,18.70
2018,10,21,14,27,18.70
2018,10,21,14,28,18.70
2018,10,21,14,29,18.70
2018,10,21,14,30,18.80
2018,10,21,14,31,18.80
2018,10,21,14,32,18.80
2018,10,21,14,33,18.80
2018,10,21,14,34,18.80
2018,10,21,14,35,18.80
2018,10,21,14,36,18.80
2018,10,21,14,37,18.90
2018,10,21,14,38,19.00
2018,10,21,14,39,19.00
2018,10,21,14,40,19.10
2018,10,21,14,41,19.10
2018,10,21,14,42,19.10
2018,10,21,14,43,19.10
2018,10,21,14,44,19.10
2018,10,21,14,45,19.10
2018,10,21,14,46,19.10
2018,10,21,14,47,18.90
2018,10,21,14,48,18.80
2018,10,21,14,49,18.80
2018,10,21,14,50,18.90
2018,10,21,14,51,18.90
2018,10,21,14,52,18.90
2018,10,21,14,53,18.90
2018,10,21,14,54,19.00
2018,10,21,14,55,18.90
2018,10,21,14,56,18.90
2018,10,21,14,57,18.90
2018,10,21,14,58,18.90
2018,10,21,14,59,18.90
2018,10,21,15,00,18.90
2018,10,21,15,01,18.90
2018,10,21,15,02,18.90
2018,10,21,15,03,18.90
2018,10,21,15,04,18.80
2018,10,21,15,05,18.90
2018,10,21,15,06,18.90
2018,10,21,15,07,18.90
2018,10,21,15,08,18.90
2018,10,21,15,09,18.90
2018,10,21,15,10,18.80
2018,10,21,15,11,18.80
2018,10,21,15,12,18.80
2018,10,21,15,13,18.90
2018,10,21,15,14,18.90
2018,10,21,15,15,18.90
2018,10,21,15,16,18.90
2018,10,21,15,17,18.90
2018,10,21,15,18,18.90
2018,10,21,15,19,18.90
2018,10,21,15,20,18.90
2018,10,21,15,21,18.90
2018,10,21,15,22,18.90
2018,10,21,15,23,18.90
2018,10,21,15,24,18.90
2018,10,21,15,25,18.80
2018,10,21,15,26,18.80
2018,10,21,15,27,18.80
2018,10,21,15,28,18.80
2018,10,21,15,29,18.80
2018,10,21,15,30,18.80
2018,10,21,15,31,18.70
2018,10,21,15,32,18.70
2018,10,21,15,33,18.60
2018,10,21,15,34,18.60
2018,10,21,15,35,18.60
2018,10,21,15,36,18.50
2018,10,21,15,37,18.50
2018,10,21,15,38,18.50
2018,10,21,15,39,18.50
2018,10,21,15,40,18.40
2018,10,21,15,41,18.40
2018,10,21,15,42,18.40
2018,10,21,15,43,18.40
2018,10,21,15,44,18.40
2018,10,21,15,45,18.40
2018,10,21,15,46,18.30
2018,10,21,15,47,18.30
2018,10,21,15,48,18.30
2018,10,21,15,49,18.30
2018,10,21,15,50,18.30
2018,10,21,15,51,18.20
2018,10,21,15,52,18.20
2018,10,21,15,53,18.20
2018,10,21,15,54,18.20
2018,10,21,15,55,18.20
2018,10,21,15,56,18.20
2018,10,21,15,57,18.20
2018,10,21,15,58,18.20
2018,10,21,15,59,18.20
2018,10,21,16,00,18.20
2018,10,21,16,01,18.20
2018,10,21,16,02,18.20
2018,10,21,16,03,18.10
2018,10,21,16,04,18.10
2018,10,21,16,05,18.10
2018,10,21,16,06,18.10
2018,10,21,16,07,18.10
2018,10,21,16,08,18.10
2018,10,21,16,09,18.10
2018,10,21,16,10,18.10
2018,10,21,16,11,18.10
2018,10,21,16,12,18.10
2018,10,21,16,13,18.10
2018,10,21,16,14,18.10
2018,10,21,16,15,18.10
2018,10,21,16,16,18.10
2018,10,21,16,17,18.10
2018,10,21,16,18,18.00
2018,10,21,16,19,18.00
2018,10,21,16,20,18.00
2018,10,21,16,21,18.00
2018,10,21,16,22,17.90
2018,10,21,16,23,17.90
2018,10,21,16,24,17.90
2018,10,21,16,25,17.90
2018,10,21,16,26,17.90
2018,10,21,16,27,17.90
2018,10,21,16,28,17.80
2018,10,21,16,29,17.80
2018,10,21,16,30,17.80
2018,10,21,16,31,17.80
2018,10,21,16,32,17.80
2018,10,21,16,33,17.70
2018,10,21,16,34,17.70
2018,10,21,16,35,17.70
2018,10,21,16,36,17.70
2018,10,21,16,37,17.70
2018,10,21,16,38,17.60
2018,10,21,16,39,17.60
2018,10,21,16,40,17.60
2018,10,21,16,41,17.60
2018,10,21,16,42,17.50
2018,10,21,16,43,17.50
2018,10,21,16,44,17.50
2018,10,21,16,45,17.40
2018,10,21,16,46,17.40
2018,10,21,16,47,17.40
2018,10,21,16,48,17.40
2018,10,21,16,49,17.30
2018,10,21,16,50,17.30
2018,10,21,16,51,17.30
2018,10,21,16,52,17.30
2018,10,21,16,53,17.30
2018,10,21,16,54,17.20
2018,10,21,16,55,17.20
2018,10,21,16,56,17.20
2018,10,21,16,57,17.20
2018,10,21,16,58,17.10
2018,10,21,16,59,17.10
2018,10,21,17,00,17.10
2018,10,21,17,01,17.10
2018,10,21,17,02,17.00
2018,10,21,17,03,17.00
2018,10,21,17,04,16.90
2018,10,21,17,05,16.90
2018,10,21,17,06,16.90
2018,10,21,17,07,16.90
2018,10,21,17,08,16.90
2018,10,21,17,09,16.80
2018,10,21,17,10,16.80
2018,10,21,17,11,16.80
2018,10,21,17,12,16.80
2018,10,21,17,13,16.70
2018,10,21,17,14,16.70
2018,10,21,17,15,16.70
2018,10,21,17,16,16.60
2018,10,21,17,17,16.60
2018,10,21,17,18,16.60
2018,10,21,17,19,16.50
2018,10,21,17,20,16.50
2018,10,21,17,21,16.50
2018,10,21,17,22,16.40
2018,10,21,17,23,16.40
2018,10,21,17,24,16.40
2018,10,21,17,25,16.30
2018,10,21,17,26,16.30
2018,10,21,17,27,16.30
2018,10,21,17,28,16.20
2018,10,21,17,29,16.20
2018,10,21,17,30,16.10
2018,10,21,17,31,16.10
2018,10,21,17,32,16.10
2018,10,21,17,33,16.00
2018,10,21,17,34,16.00
2018,10,21,17,35,15.90
2018,10,21,17,36,15.90
2018,10,21,17,37,15.80
2018,10,21,17,38,15.80
2018,10,21,17,39,15.70
2018,10,21,17,40,15.70
2018,10,21,17,41,15.60
2018,10,21,17,42,15.60
2018,10,21,17,43,15.50
2018,10,21,17,44,15.50
2018,10,21,17,45,15.40
2018,10,21,17,46,15.30
2018,10,21,17,47,15.30
2018,10,21,17,48,15.20
2018,10,21,17,49,15.10
2018,10,21,17,50,15.00
2018,10,21,17,51,15.00
2018,10,21,17,52,15.00
2018,10,21,17,53,15.00
2018,10,21,17,54,14.90
2018,10,21,17,55,14.80
2018,10,21,17,56,14.70
2018,10,21,17,57,14.70
2018,10,21,17,58,14.60
2018,10,21,17,59,14.50
2018,10,21,18,00,14.50
2018,10,21,18,01,14.40
2018,10,21,18,02,14.40
2018,10,21,18,03,14.30
2018,10,21,18,04,14.20
2018,10,21,18,05,14.20
2018,10,21,18,06,14.10
2018,10,21,18,07,14.10
2018,10,21,18,08,14.00
2018,10,21,18,09,13.90
2018,10,21,18,10,13.90
2018,10,21,18,11,13.90
2018,10,21,18,12,13.80
2018,10,21,18,13,13.80
2018,10,21,18,14,13.70
2018,10,21,18,15,13.70
2018,10,21,18,16,13.60
2018,10,21,18,17,13.50
2018,10,21,18,18,13.40
2018,10,21,18,19,13.40
2018,10,21,18,20,13.30
2018,10,21,18,21,13.20
2018,10,21,18,22,13.10
2018,10,21,18,23,13.00
2018,10,21,18,24,12.90
2018,10,21,18,25,12.80
2018,10,21,18,26,12.80
2018,10,21,18,27,12.70
2018,10,21,18,28,12.70
2018,10,21,18,29,12.60
2018,10,21,18,30,12.50
2018,10,21,18,31,12.40
2018,10,21,18,32,12.40
2018,10,21,18,33,12.30
2018,10,21,18,34,12.20
2018,10,21,18,35,12.20
2018,10,21,18,36,12.10
2018,10,21,18,37,12.10
2018,10,21,18,38,12.00
2018,10,21,18,39,11.90
2018,10,21,18,40,11.80
2018,10,21,18,41,11.80
2018,10,21,18,42,11.70
2018,10,21,18,43,11.70
2018,10,21,18,44,11.60
2018,10,21,18,45,11.60
2018,10,21,18,46,11.50
2018,10,21,18,47,11.50
2018,10,21,18,48,11.40
2018,10,21,18,49,11.30
2018,10,21,18,50,11.30
2018,10,21,18,51,11.20
2018,10,21,18,52,11.20
2018,10,21,18,53,11.20
2018,10,21,18,54,11.20
2018,10,21,18,55,11.20
2018,10,21,18,56,11.20
2018,10,21,18,57,11.20
2018,10,21,18,58,10.80
2018,10,21,18,59,10.80
2018,10,21,19,00,10.80
2018,10,21,19,01,10.80
2018,10,21,19,02,10.80
2018,10,21,19,03,10.70
2018,10,21,19,04,10.70
2018,10,21,19,05,10.60
2018,10,21,19,06,10.60
2018,10,21,19,07,10.60
2018,10,21,19,08,10.50
2018,10,21,19,09,10.50
2018,10,21,19,10,10.40
2018,10,21,19,11,10.40
2018,10,21,19,12,10.30
2018,10,21,19,13,10.30
2018,10,21,19,14,10.30
2018,10,21,19,15,10.20
2018,10,21,19,16,10.20
2018,10,21,19,17,10.20
2018,10,21,19,18,10.10
2018,10,21,19,19,10.10
2018,10,21,19,20,10.10
2018,10,21,19,21,10.00
2018,10,21,19,22,10.00
2018,10,21,19,23,10.00
2018,10,21,19,24,9.90
2018,10,21,19,25,9.90
2018,10,21,19,26,9.90
2018,10,21,19,27,9.90
2018,10,21,19,28,9.80
2018,10,21,19,29,9.80
2018,10,21,19,30,9.80
2018,10,21,19,31,9.70
2018,10,21,19,32,9.70
2018,10,21,19,33,9.70
2018,10,21,19,34,9.60
2018,10,21,19,35,9.60
2018,10,21,19,36,9.60
2018,10,21,19,37,9.60
2018,10,21,19,38,9.60
2018,10,21,19,39,9.50
2018,10,21,19,40,9.40
2018,10,21,19,41,9.40
2018,10,21,19,42,9.40
2018,10,21,19,43,9.40
2018,10,21,19,44,9.30
2018,10,21,19,45,9.30
2018,10,21,19,46,9.30
2018,10,21,19,47,9.20
2018,10,21,19,48,9.20
2018,10,21,19,49,9.20
2018,10,21,19,50,9.20
2018,10,21,19,51,9.10
2018,10,21,19,52,9.10
2018,10,21,19,53,9.00
2018,10,21,19,54,9.00
2018,10,21,19,55,8.90
2018,10,21,19,56,8.90
2018,10,21,19,57,8.90
2018,10,21,19,58,8.90
2018,10,21,19,59,8.80
2018,10,21,20,00,8.80
2018,10,21,20,01,8.80
2018,10,21,20,02,8.80
2018,10,21,20,03,8.70
2018,10,21,20,04,8.70
2018,10,21,20,05,8.70
2018,10,21,20,06,8.60
2018,10,21,20,07,8.60
2018,10,21,20,08,8.60
2018,10,21,20,09,8.50
2018,10,21,20,10,8.50
2018,10,21,20,11,8.50
2018,10,21,20,12,8.40
2018,10,21,20,13,8.40
2018,10,21,20,14,8.40
2018,10,21,20,15,8.40
2018,10,21,20,16,8.40
2018,10,21,20,17,8.40
2018,10,21,20,18,8.40
2018,10,21,20,19,8.30
2018,10,21,20,20,8.30
2018,10,21,20,21,8.30
2018,10,21,20,22,8.30
2018,10,21,20,23,8.20
2018,10,21,20,24,8.20
2018,10,21,20,25,8.20
2018,10,21,20,26,8.20
2018,10,21,20,27,8.20
2018,10,21,20,28,8.10
2018,10,21,20,29,8.10
2018,10,21,20,30,8.10
2018,10,21,20,31,8.10
2018,10,21,20,32,8.10
2018,10,21,20,33,8.10
2018,10,21,20,34,8.00
2018,10,21,20,35,8.00
2018,10,21,20,36,7.90
2018,10,21,20,37,7.90
2018,10,21,20,38,7.90
2018,10,21,20,39,7.90